Weather History for KPOF - December, 2013

Change the Weather History Date:

Thursday, December 12, 2013

  Actual Average Record
Temperature  
Mean Temperature 22 °F -  
Max Temperature 30 °F 47 °F 75 °F (1948)
Min Temperature 15 °F 28 °F -2 °F (1962)
Degree Days  
Heating Degree Days 42    
Moisture  
Dew Point 11 °F    
Average Humidity 62    
Maximum Humidity 81    
Minimum Humidity 49    
Precipitation  
Precipitation 0.00 in - - ()
Sea Level Pressure  
Sea Level Pressure 30.57 in    
Wind  
Wind Speed 3 mph (SSE)    
Max Wind Speed 9 mph    
Max Gust Speed -    
Visibility 10 miles    
Events      
Averages and records for this station are not official NWS values.
T = Trace of Precipitation, MM = Missing Value Source: NWS Daily Summary

Daily Weather History Graph

Daily Weather History Graph

Search for Another Location

Airport or City:

Trip Planner

Search our weather history database for the weather conditions in past years. The results will help you decide how hot, cold, wet, or windy it might be!

Date:

Astronomy

Dec. 12, 2013 Rise Set
Actual Time 7:04 AM CST 4:45 PM CST
Civil Twilight 6:35 AM CST 5:14 PM CST
Nautical Twilight 6:03 AM CST 5:46 PM CST
Astronomical Twilight 5:32 AM CST 6:18 PM CST
Moon 1:48 PM CST (12/12) 2:32 AM CST (12/12)
Length of Visible Light 10h 38m
Length of Day
9h 40m
Waxing Gibbous, 80% of the Moon is Illuminated
Dec 12
Waxing Gibbous
Dec 17
Full
Dec 25
Last Quarter
Jan 1
New
Jan 7
First Quarter

Hourly Weather History & Observations

Time (CST) Temp. Windchill Dew Point Humidity Pressure Visibility Wind Dir Wind Speed Gust Speed Precip Events Conditions
12:53 AM 21.9 °F 14.5 °F 10.9 °F 63% 30.66 in 10.0 mi North 5.8 mph - N/A   Clear
1:53 AM 21.0 °F 14.6 °F 9.0 °F 60% 30.66 in 10.0 mi NNE 4.6 mph - N/A   Clear
2:53 AM 19.9 °F - 8.1 °F 60% 30.66 in 10.0 mi Calm Calm - N/A   Clear
3:53 AM 18.0 °F 11.1 °F 6.1 °F 60% 30.64 in 10.0 mi East 4.6 mph - N/A   Clear
4:53 AM 18.0 °F - 3.9 °F 54% 30.64 in 10.0 mi Calm Calm - N/A   Clear
5:53 AM 15.1 °F - 6.1 °F 68% 30.64 in 10.0 mi Calm Calm - N/A   Clear
6:53 AM 15.1 °F - 8.1 °F 74% 30.65 in 10.0 mi Calm Calm - N/A   Clear
7:53 AM 16.0 °F - 9.0 °F 74% 30.66 in 10.0 mi Calm Calm - N/A   Clear
8:53 AM 18.0 °F - 9.0 °F 68% 30.65 in 10.0 mi Calm Calm - N/A   Clear
9:53 AM 21.9 °F 15.7 °F 7.0 °F 53% 30.66 in 10.0 mi SE 4.6 mph - N/A   Clear
10:53 AM 26.1 °F - 9.0 °F 49% 30.66 in 10.0 mi Calm Calm - N/A   Clear
11:53 AM 26.1 °F - 10.0 °F 51% 30.63 in 10.0 mi Calm Calm - N/A   Clear
12:53 PM 27.0 °F 20.5 °F 12.0 °F 53% 30.59 in 10.0 mi South 5.8 mph - N/A   Clear
1:53 PM 28.0 °F 19.3 °F 12.9 °F 53% 30.56 in 10.0 mi SSW 9.2 mph - N/A   Clear
2:53 PM 30.0 °F 21.7 °F 14.0 °F 51% 30.53 in 10.0 mi SSW 9.2 mph - N/A   Clear
3:53 PM 30.9 °F 25.2 °F 14.0 °F 50% 30.52 in 10.0 mi South 5.8 mph - N/A   Clear
4:53 PM 28.0 °F 22.8 °F 14.0 °F 56% 30.51 in 10.0 mi SSE 4.6 mph - N/A   Clear
5:53 PM 26.1 °F 18.4 °F 15.1 °F 63% 30.47 in 10.0 mi SSE 6.9 mph - N/A   Clear
6:53 PM 25.0 °F 19.3 °F 14.0 °F 63% 30.47 in 10.0 mi SW 4.6 mph - N/A   Clear
7:53 PM 25.0 °F - 15.1 °F 66% 30.46 in 10.0 mi Calm Calm - N/A   Clear
8:53 PM 21.9 °F - 14.0 °F 72% 30.45 in 10.0 mi Calm Calm - N/A   Clear
9:53 PM 21.0 °F - 15.1 °F 78% 30.42 in 9.0 mi Calm Calm - N/A   Clear
10:53 PM 21.0 °F - 15.1 °F 78% 30.41 in 6.0 mi Calm Calm - N/A   Haze
11:53 PM 19.0 °F - 14.0 °F 81% 30.39 in 6.0 mi Calm Calm - N/A   Haze